Weather in Troitskoe

Russia / Vologda Oblast     60°19′50″N   37°42′29″E
temp.,
°C
wind,
m/s
gust,
m/s
humid.,
%
clouds,
%
prec.,
mm/h
press.,
hPa
HPBL,
m
27 january, thu
thu2700:00−18ssw22100100 0.1 101411
03:00−14s2397100 0.1 101354
06:00−11s4794100 0.0 1011151
09:00−11s5892100 0.0 1010174
12:00−10s51089100 0.0 1009303
15:00−9sse61086100 0.0 1007322
18:00−9sse71288100 0.0 1006361
21:00−9s71388100 0.0 1005413
28 january, fri
fri2800:00−9sse71293100 0.5 1004475
03:00−9sse61193100 1.2 1003439
06:00−9sse61194100 0.6 1002404
09:00−9sse61194100 1.3 1002424
12:00−9sse61192100 0.5 1002458
15:00−8se61094100 0.9 1002478
18:00−8se51095100 0.8 1003472
21:00−8se599598 1.5 1003402
29 january, sat
sat2900:00−9se479598 0.3 1003246
03:00−9se4695100 0.7 1004261
06:00−9se359598 0.4 1003155
09:00−10sse339597 0.7 100456
12:00−9ssw239577 0.2 1004134
15:00−11ssw119879 0.3 100310
18:00−11wsw129994 0.1 100310
21:00−13w229978 0.1 100210
30 january, sun
sun3000:00−17s22100100 0.0 10019
03:00−18sse2210099 0.1 99918
06:00−16se4610096 0.1 99665
09:00−15se5998100 0.1 994128
12:00−11se71393100 0.0 991321
15:00−9ese81390100 0.0 989331
18:00−8ese81589100 0.0 989480
21:00−7ese81490100 0.2 988529
31 january, mon
mon3100:00−7ese71391100 0.1 989468
03:00−6ese61293100 0.6 989467
06:00−6ese61094100 0.3 989375
09:00−6ese51094100 0.8 989396
12:00−6ese5893100 0.3 990467
15:00−6ese4793100 0.5 991223
18:00−7e4696100 0.3 992105
21:00−7ene4695100 0.4 992159